Preview of NWS' New Version of Forecast
This preview is not operational and should not be used for support decisions.

Regional Weather Roundup (RWR)

Issued by National Weather Service (NWS)

                            
000
ASUS43 KMKX 191000
RWRWI 

WISCONSIN REGIONAL WEATHER ROUNDUP
NATIONAL WEATHER SERVICE MILWAUKEE/SULLIVAN WI
500 AM CDT MON AUG 19 2019

NOTE: "FAIR" INDICATES FEW OR NO CLOUDS BELOW 12,000 FEET WITH NO
SIGNIFICANT WEATHER AND/OR OBSTRUCTIONS TO VISIBILITY.

WIZ001-002-006>008-014>016-023>028-191100-
NORTHWEST WISCONSIN
  
CITY           SKY/WX    TMP DP  RH WIND       PRES   REMARKS
SUPERIOR ARPT  FAIR      50  47  88 SW7       29.93R                  
ASHLAND        FAIR      53  46  77 SW8       29.94R                  
HAYWARD        FAIR      43  40  89 CALM      29.98R                  
SIREN          FAIR      46  44  93 CALM      29.98R                  
CUMBERLAND     FAIR      46  45  93 CALM      29.99R                  
RICE LAKE      FAIR      48  33  55 CALM      30.00R HAZE             
CHETEK         FAIR      48  48 100 CALM      29.99S                  
LADYSMITH      FAIR      48  48 100 CALM      30.01R                  
EAU CLAIRE     FAIR      52  51  97 CALM      29.99R FOG              
MENOMONIE      FAIR      48  47  98 CALM      30.00S                  
NEW RICHMOND   FAIR      49  48  99 CALM      29.99S                  
OSCEOLA        FAIR      49  49 100 CALM      30.01S FOG              
$$
 
WIZ003>005-009-010-017-018-191100-
NORTH CENTRAL WISCONSIN
  
CITY           SKY/WX    TMP DP  RH WIND       PRES   REMARKS
MANITOWISH WTR FAIR      42  42 100 CALM      29.97S FOG              
ARBOR VITAE    FAIR      49  47  90 CALM      29.98R                  
WOODRUFF       FAIR      49  47  90 CALM      29.98R                  
RHINELANDER    FAIR      47  45  93 W6        29.99R                  
EAGLE RIVER    MOCLDY    42  42 100 CALM      29.97R FOG              
LAND O LAKES   FAIR      42  42  99 CALM      29.99R                  
PHILLIPS         N/A     44  44 100 CALM      29.99R FOG              
TOMAHAWK       FAIR      42  41  97 CALM      29.99S                  
MEDFORD        FOG       46  46  99 CALM      29.99S VSB 1/4          
MERRILL        FOG       44  44 100 CALM      30.00R VSB 1/4          
$$
 
WIZ029-030-035-036-043>047-191100-
CENTRAL WISCONSIN
  
CITY           SKY/WX    TMP DP  RH WIND       PRES   REMARKS
WAUSAU         FAIR      51  50  96 CALM      29.98R                  
MOSINEE        FAIR      52  52 100 CALM      30.00R                  
MARSHFIELD     FAIR      52  50  93 NW6       29.99R                  
STEVENS POINT  FAIR      47  47 100 CALM      30.00R                  
WAUPACA        FAIR      55  53  94 CALM      29.99R                  
WAUTOMA        FAIR      53  52  96 CALM      30.00R                  
WISC RAPIDS    FAIR      52  51  97 CALM      30.00R                  
CAMP DOUGLAS   FAIR      50  50 100 CALM      30.00R FOG              
$$
 
WIZ011>013-019>022-031-037>040-048>050-191100-
NORTHEAST WISCONSIN
  
CITY           SKY/WX    TMP DP  RH WIND       PRES   REMARKS
ANTIGO         FOG       45  45 100 CALM      30.00R VSB 1/2          
SHAWANO        FAIR      56  55  96 CALM      29.97S                  
OCONTO         FAIR      54  54  99 CALM      29.96R                  
STURGEON BAY   FAIR      58  58 100 CALM      29.97R FOG              
GREEN BAY      FAIR      58  56  93 NW3       29.97R                  
MANITOWOC      FAIR      60  58  92 NW3       29.97R                  
APPLETON       NOT AVBL                                               
CLINTONVILLE   FAIR      54  52  93 CALM      29.98R                  
OSHKOSH        MOCLDY    61  56  83 W5        29.97R                  
$$
 
WIZ032>034-041-042-053>061-191100-
SOUTHWEST WISCONSIN
  
CITY           SKY/WX    TMP DP  RH WIND       PRES   REMARKS
LA CROSSE      FAIR      59  56  89 CALM      29.99R                  
SPARTA         FOG       51  51 100 CALM      30.00R VSB<1/4          
VIROQUA        MOCLDY    57  57 100 CALM      30.01R                  
BOSCOBEL       CLOUDY    62  61  96 CALM      30.00R FOG              
PRAIRIE DU CHI FAIR      61  60  96 CALM      29.99R                  
PLATTEVILLE    FAIR      61  61 100 N6        29.99S                  
$$

WIZ056-057-062-063-064-067-068-191100-
SOUTH CENTRAL WISCONSIN
  
CITY           SKY/WX    TMP DP  RH WIND       PRES   REMARKS
REEDSBURG      MOCLDY    58  58 100 CALM      29.99S                  
BARABOO/DELLS  CLOUDY    60  58  96 CALM      30.00R                  
LONE ROCK      MOCLDY    61  60  97 CALM      29.99R                  
MINERAL POINT    N/A     63  63 100 MISG      29.99R                  
MADISON        FAIR      61  60  97 N5        29.97S                  
MIDDLETON      FAIR      61  28  28 CALM      29.99R                  
WATERTOWN      FAIR      62  62 100 N3        29.96S                  
MONROE         FAIR      65  63  95 N7        29.98R                  
JANESVILLE     FAIR      63  63 100 CALM      29.96S FOG              
$$
 
WIZ051-052-058>065-066-070>072-191100-
SOUTHEAST WISCONSIN
  
CITY           SKY/WX    TMP DP  RH WIND       PRES   REMARKS
MILWAUKEE      FAIR      68  63  84 N6        29.95S                  
WAUKESHA       FAIR      63  61  94 NW5       29.98R                  
MILWAUKEE/TIMM FAIR      63  59  88 CALM      29.97S                  
RACINE         FAIR      66  63  90 NW5       29.97R                  
KENOSHA        FOG       64  64 100 CALM      29.96S VSB 3/4          
FOND DU LAC    MOCLDY    62  57  83 CALM      29.98R                  
SHEBOYGAN      FAIR      61  57  87 NW5       29.96R                  
WEST BEND      FAIR      61  59  94 NW5       29.97S                  
JUNEAU         MOCLDY    61  60  97 CALM      29.99R                  
$$

LSZ147-162-191100-
LAKE SUPERIOR
  
STATION/POSITION TIME  TEMP    WIND        PRES    WAVE
                       AIR SEA DIR/SP/G            HT/PER
                 (UTC) (F)     (DEG/KT/KT) (MB)    (FT/S)
W MID LAKE BUOY  0850   65 63  250/ 16/ 19 1010.8R   3/ 5
DEVILS ISLAND    0900   63     240/ 15/ 19 1012.1R
SAXON HARBOR     0940   58     190/  8/ 10 1012.9R
$$
 
LMZ867-665-643>646-191100-
LAKE MICHIGAN
  
STATION/POSITION TIME  TEMP    WIND        PRES    WAVE
                       AIR SEA DIR/SP/G            HT/PER
                 (UTC) (F)     (DEG/KT/KT) (MB)    (FT/S)
S GREEN BAY BUOY 0900   70 69  300/ 10/ 14 1014.4R
N MID LAKE BUOY  0940   67 69  290/ 10/ 12 1014.0R
NORTHPORT PIER   0940   61     250/  2/  3 1013.9R
KEWAUNEE LAKESHO 0930   62     300/  2/  4 1013.9R
SHEBOYGAN LAKESH 0900   67     300/  8/  9 1014.1R
PORT WASHINGTON  0930   66     290/  4/  5 1015.6R
S MID LAKE BUOY  0940   73 73  300/  6/  8 1014.4R
KENOSHA   LAKESH 0900   69     290/  6/  7 1013.9
$$

TC  - TEMPERATURE IN CELSIUS
VSB - VISIBILITY IN STATUTE MILES
WCI - WIND CHILL INDEX
HX  - HEAT INDEX